Weather Roundup
Issued by NWS Springfield, MO

Home | Current Version | Previous Version | Text Only | Print | Product List | Glossary On
Versions: 1 2 3 4 5 6 7 8 9 10 11 12 13 14 15 16 17 18 19 20 21 22 23 24 25 26 27 28 29 30 31 32 33 34 35 36 37 38 39 40 41 42 43 44 45 46 47 48 49 50
000
NZUS99 KSGF 212107
HRRSGF

HOURLY WEATHER
NATIONAL WEATHER SERVICE SPRINGFIELD MO
400 PM CDT THU AUG 21 2014

......SGF CWA......

CITY           SKY/WX    TMP DP  RH WIND       PRES   REMARKS
SPRINGFIELD    SUNNY     97  63  32 SW14      29.97F HX  98
JOPLIN         MOSUNNY   95  70  44 S15G23    29.95F HX 101
WEST PLAINS    MOSUNNY   92  69  47 S12       30.03F HX  97
ROLLA          MOSUNNY   93  71  48 S10       29.96F HX 100
OSAGE BEACH    MOSUNNY   97  70  41 S9        29.94S HX 103
BRANSON        MOSUNNY   99  64  32 SW8       30.02F HX 101

......SURROUNDING SGF CWA......

CITY           SKY/WX    TMP DP  RH WIND       PRES   REMARKS
CHANUTE        SUNNY     97  69  40 S22       29.92F HX 103
PARSONS        MOSUNNY   94  73  50 S14G22    29.93F HX 103
COFFEYVILLE    SUNNY     95  74  50 S17G26    29.92F HX 105
EMPORIA        SUNNY     97  69  40 S17G28    29.87F HX 103
GROVE OK       SUNNY     95  70  43 S13G21    29.98S HX 101
ROGERS AR      SUNNY     93  66  40 S12       30.02F HX  96
SILOAM SPRINGS SUNNY     90  70  51 S13G22    30.02S HX  95
HARRISON AR    SUNNY     89  71  55 S12       30.04F HX  95
NEAR YELLVILLE SUNNY     95  63  34 SW10G17   30.00F HX  96

......KANSAS AND MISSOURI......

CITY           SKY/WX    TMP DP  RH WIND       PRES   REMARKS
KANSAS CTY INT MOSUNNY   94  74  52 S18       29.87F HX 104
DOWNTOWN KC    MOSUNNY   96  72  45 S14       29.85F HX 104
COLUMBIA       SUNNY     93  72  50 SW14      29.93F HX 101
SEDALIA        MOSUNNY   95  73  48 S16G23    29.92F HX 104
ST JOSEPH      MOSUNNY   92  76  59 S15G23    29.82F HX 104
ST LOUIS       PTSUNNY   95  73  48 SW10      29.95F HX 104
SPIRIT OF STL  MOSUNNY   93  74  53 S9        29.93F HX 103
KIRKSVILLE     MOSUNNY   87  76  69 S7        29.91F HX  97
WICHITA        MOSUNNY   98  68  37 S20G31    29.86F HX 103
TOPEKA         SUNNY     99  71  40 S13G21    29.84F HX 107
OLATHE         SUNNY     94  72  48 S12       29.88F HX 102

......TENNESSEE......

CITY           SKY/WX    TMP DP  RH WIND       PRES   REMARKS
MEMPHIS        MOSUNNY   95  72  47 SW10      30.06F HX 103
NASHVILLE      PTSUNNY   92  69  47 SW9       30.06F HX  97

......ARKANSAS.......

CITY           SKY/WX    TMP DP  RH WIND       PRES   REMARKS
FAYETTEVILLE   SUNNY     90  70  51 S20       30.02F HX  95
FT SMITH       MOSUNNY   93  70  46 S13       29.99F HX  99
LITTLE ROCK    MOSUNNY   91  70  49 SW13      30.03F HX  96

......OKLAHOMA.......

CITY           SKY/WX    TMP DP  RH WIND       PRES   REMARKS
TULSA          MOSUNNY   96  71  44 S17G24    29.92F HX 103
PONCA CITY     SUNNY     97  69  40 SW14G21   29.89F HX 103
MCALESTER      MOSUNNY   92  71  50 S9G26     29.98F HX  98
OKLAHOMA CITY  MOSUNNY   97  67  37 S15G22    29.92F HX 101

......IOWA............

CITY           SKY/WX    TMP DP  RH WIND       PRES   REMARKS
DES MOINES     MOSUNNY   86  75  69 S14       29.85S HX  95
QUAD CITIES    CLOUDY    82  73  74 SE5       29.90F

......ILLINOIS........

CITY           SKY/WX    TMP DP  RH WIND       PRES   REMARKS
QUINCY         MOSUNNY   91  75  59 SW8       29.91F HX 101
CHICAGO        HVY RAIN  76  70  82 N12       29.96R




USA.gov is the U.S. government's official web portal to all federal, state and local government web resources and services.